Date String (YYYY-MM-DD hh:mm:ss) UTC,Instrument flags,absolute air pressure of the measurement (hPa),sample flow rate (lpm),inlet stack bypass flow (lpm),air temperature of the measurement (°C),ambient temperature measured by the external sensor (°C),aerosol sample conditioner tube jacket temperature (°C),OPC LED temperature (°C),internal box temperature (°C),relative humidity of the measurement (%),span deviation,mass concentration of particles derived from Lorenz-Mie calculation of OPC scattering (μg/m³),mass concentration of particles derived from Lorenz-Mie calculation of OPC scattering (μg/m³),mass concentration of particles derived from Lorenz-Mie calculation of OPC scattering (μg/m³)
DateTimeUTC,F1_M11,P_M11,Q1_M11,Q2_M11,T1_M11,T2_M11,T3_M11,T4_M11,T5_M11,U1_M11,ZSPAN_M11,X0_M11,X2_M11,X1_M11
2023-09-20 01:00:00,SystemResetWarning,0829.4,5.00,000.00,028.1,026.9,000.0,036.3,029.9,19.8,0000.0,0003.06,0002.19,0001.86
2023-09-20 01:01:00,SystemResetWarning,0829.4,5.01,000.00,028.1,026.9,000.0,036.4,029.9,19.8,0000.0,0003.17,0002.19,0001.82
2023-09-20 01:02:00,SystemResetWarning,0829.3,4.98,000.00,028.1,026.2,000.0,036.3,029.6,19.7,0000.0,0004.27,0002.23,0001.81
2023-09-20 01:03:00,SystemResetWarning,0829.2,5.00,000.00,028.0,024.6,000.0,036.3,029.1,19.8,0000.0,0004.85,0002.26,0001.80
2023-09-20 01:04:00,SystemResetWarning,0829.2,5.01,000.00,027.9,024.3,000.0,036.3,029.2,19.9,0000.0,0004.97,0002.25,0001.79
2023-09-20 01:05:00,SystemResetWarning,0829.1,5.00,000.00,027.8,024.4,000.0,036.2,029.2,20.1,0000.0,0005.12,0002.29,0001.79
2023-09-20 01:06:00,SystemResetWarning,0829.2,4.99,000.00,027.8,024.7,000.0,036.2,029.2,20.1,0000.0,0005.92,0002.34,0001.79
2023-09-20 01:07:00,SystemResetWarning,0829.2,5.01,000.00,027.7,025.0,000.0,036.2,029.2,20.1,0000.0,0006.14,0002.34,0001.79
2023-09-20 01:08:00,SystemResetWarning,0829.2,5.00,000.00,027.7,025.2,000.0,036.2,029.3,20.1,0000.0,0006.21,0002.34,0001.79
2023-09-20 01:09:00,SystemResetWarning,0829.2,4.99,000.00,027.7,025.5,000.0,036.2,029.3,20.2,0000.0,0006.15,0002.32,0001.77
2023-09-20 01:10:00,SystemResetWarning,0829.2,5.00,000.00,027.7,025.6,000.0,036.2,029.3,20.3,0000.0,0006.38,0002.35,0001.77
2023-09-20 01:11:00,SystemResetWarning,0829.3,5.01,000.00,027.7,025.8,000.0,036.2,029.4,20.3,0000.0,0007.30,0002.35,0001.77
2023-09-20 01:12:00,SystemResetWarning,0829.3,5.01,000.00,027.7,025.9,000.0,036.2,029.4,20.3,0000.0,0007.16,0002.33,0001.76
2023-09-20 01:13:00,SystemResetWarning,0829.2,5.00,000.00,027.7,026.0,000.0,036.2,029.4,20.3,0000.0,0006.48,0002.35,0001.77
2023-09-20 01:14:00,SystemResetWarning,0829.3,5.00,000.00,027.7,026.1,000.0,036.2,029.4,20.4,0000.0,0006.42,0002.34,0001.76
2023-09-20 01:15:00,SystemResetWarning,0829.3,5.00,000.00,027.8,026.2,000.0,036.2,029.4,20.3,0000.0,0006.47,0002.35,0001.76
2023-09-20 01:16:00,SystemResetWarning,0829.3,5.00,000.00,027.8,026.2,000.0,036.2,029.4,20.2,0000.0,0006.27,0002.31,0001.74
2023-09-20 01:17:00,SystemResetWarning,0829.3,5.00,000.00,027.8,026.3,000.0,036.2,029.5,20.2,0000.0,0005.53,0002.27,0001.74
2023-09-20 01:18:00,SystemResetWarning,0829.3,5.00,000.00,027.8,026.3,000.0,036.1,029.5,20.2,0000.0,0005.26,0002.25,0001.73
2023-09-20 01:19:00,SystemResetWarning,0829.3,5.00,000.00,027.8,026.3,000.0,036.2,029.5,20.1,0000.0,0005.18,0002.24,0001.73
2023-09-20 01:20:00,SystemResetWarning,0829.4,5.00,000.00,027.8,026.4,000.0,036.2,029.5,20.1,0000.0,0005.31,0002.24,0001.73
2023-09-20 01:21:00,SystemResetWarning,0829.4,4.99,000.00,027.9,026.4,000.0,036.2,029.6,20.1,0000.0,0005.07,0002.22,0001.72
2023-09-20 01:22:00,SystemResetWarning,0829.4,5.00,000.00,027.9,026.4,000.0,036.2,029.5,20.1,0000.0,0003.95,0002.17,0001.70
2023-09-20 01:23:00,SystemResetWarning,0829.4,5.00,000.00,027.9,026.4,000.0,036.2,029.6,20.0,0000.0,0003.90,0002.12,0001.68
2023-09-20 01:24:00,SystemResetWarning,0829.4,5.00,000.00,027.9,026.4,000.0,036.2,029.6,19.9,0000.0,0003.92,0002.06,0001.65
2023-09-20 01:25:00,SystemResetWarning,0829.4,5.00,000.00,027.9,026.5,000.0,036.2,029.6,19.9,0000.0,0003.04,0001.98,0001.61
2023-09-20 01:26:00,SystemResetWarning,0829.4,5.01,000.00,027.9,026.5,000.0,036.2,029.6,19.9,0000.0,0002.88,0001.95,0001.56
2023-09-20 01:27:00,SystemResetWarning,0829.4,5.00,000.00,027.9,026.5,000.0,036.2,029.6,19.8,0000.0,0002.87,0001.89,0001.54
2023-09-20 01:28:00,SystemResetWarning,0829.4,5.00,000.00,028.0,026.5,000.0,036.2,029.6,19.8,0000.0,0003.05,0001.87,0001.51
2023-09-20 01:29:00,SystemResetWarning,0829.4,4.99,000.00,028.0,026.5,000.0,036.2,029.7,19.7,0000.0,0003.24,0001.91,0001.49
2023-09-20 01:30:00,SystemResetWarning,0829.4,5.00,000.00,028.0,026.5,000.0,036.2,029.7,19.6,0000.0,0003.31,0001.91,0001.46
2023-09-20 01:31:00,SystemResetWarning,0829.5,5.00,000.00,028.0,026.6,000.0,036.2,029.7,19.5,0000.0,0003.19,0001.87,0001.43
2023-09-20 01:32:00,SystemResetWarning,0829.5,5.00,000.00,028.0,026.6,000.0,036.3,029.7,19.6,0000.0,0003.16,0001.82,0001.41
2023-09-20 01:33:00,SystemResetWarning,0829.5,5.00,000.00,028.0,026.6,000.0,036.3,029.7,19.5,0000.0,0003.14,0001.77,0001.38
2023-09-20 01:34:00,SystemResetWarning,0829.5,5.01,000.00,028.1,026.6,000.0,036.3,029.7,19.5,0000.0,0003.24,0001.79,0001.37
2023-09-20 01:35:00,SystemResetWarning,0829.5,5.01,000.00,028.1,026.6,000.0,036.3,029.7,19.4,0000.0,0003.24,0001.79,0001.36
2023-09-20 01:36:00,SystemResetWarning,0829.6,5.01,000.00,028.1,026.7,000.0,036.3,029.7,19.4,0000.0,0003.64,0001.85,0001.37
2023-09-20 01:37:00,SystemResetWarning,0829.7,5.01,000.00,028.1,026.7,000.0,036.3,029.7,19.5,0000.0,0003.70,0001.82,0001.39
2023-09-20 01:38:00,SystemResetWarning,0829.6,4.99,000.00,028.1,026.7,000.0,036.3,029.7,19.5,0000.0,0003.68,0001.83,0001.39
2023-09-20 01:39:00,SystemResetWarning,0829.6,4.99,000.00,028.1,026.7,000.0,036.4,029.8,19.4,0000.0,0003.54,0001.84,0001.38
2023-09-20 01:40:00,SystemResetWarning,0829.6,5.00,000.00,028.1,026.8,000.0,036.4,029.8,19.2,0000.0,0003.52,0001.88,0001.35
2023-09-20 01:41:00,SystemResetWarning,0829.6,5.00,000.00,028.1,026.8,000.0,036.4,029.8,19.2,0000.0,0003.90,0001.91,0001.33
2023-09-20 01:42:00,SystemResetWarning,0829.6,5.00,000.00,028.2,026.8,000.0,036.4,029.8,19.2,0000.0,0005.03,0001.99,0001.32
2023-09-20 01:43:00,SystemResetWarning,0829.6,5.01,000.00,028.2,026.8,000.0,036.4,029.8,19.2,0000.0,0005.85,0002.02,0001.31
2023-09-20 01:44:00,SystemResetWarning,0829.6,5.01,000.00,028.2,026.8,000.0,036.4,029.8,19.1,0000.0,0006.20,0002.06,0001.29
2023-09-20 01:45:00,SystemResetWarning,0829.6,5.01,000.00,028.2,026.9,000.0,036.5,029.9,19.2,0000.0,0006.67,0002.08,0001.28
2023-09-20 01:46:00,SystemResetWarning,0829.6,5.00,000.00,028.2,026.9,000.0,036.5,029.9,19.3,0000.0,0007.29,0002.10,0001.26
2023-09-20 01:47:00,SystemResetWarning,0829.6,4.99,000.00,028.2,026.9,000.0,036.5,029.9,19.3,0000.0,0007.14,0002.08,0001.24
2023-09-20 01:48:00,SystemResetWarning,0829.5,4.99,000.00,028.2,026.9,000.0,036.5,029.9,19.3,0000.0,0006.81,0002.06,0001.22
2023-09-20 01:49:00,SystemResetWarning,0829.4,5.02,000.00,028.3,026.9,000.0,036.5,029.9,19.3,0000.0,0006.77,0002.04,0001.18
2023-09-20 01:50:00,SystemResetWarning,0829.5,5.00,000.00,028.3,026.9,000.0,036.5,029.9,19.2,0000.0,0006.76,0002.03,0001.16
2023-09-20 01:51:00,SystemResetWarning,0829.6,4.99,000.00,028.3,026.9,000.0,036.5,029.9,19.3,0000.0,0006.58,0001.92,0001.14
2023-09-20 01:52:00,SystemResetWarning,0829.6,4.99,000.00,028.3,026.9,000.0,036.5,029.9,19.3,0000.0,0006.15,0001.79,0001.12
2023-09-20 01:53:00,SystemResetWarning,0829.7,4.99,000.00,028.3,026.9,000.0,036.5,029.9,19.3,0000.0,0004.87,0001.68,0001.10
2023-09-20 01:54:00,SystemResetWarning,0829.7,5.01,000.00,028.3,026.5,000.0,036.5,029.9,19.3,0000.0,0004.04,0001.66,0001.08
2023-09-20 01:55:00,SystemResetWarning,0829.7,5.00,000.00,028.2,024.8,000.0,036.5,029.3,19.4,0000.0,0004.33,0001.60,0001.06
2023-09-20 01:56:00,SystemResetWarning,0829.7,5.01,000.00,028.1,024.1,000.0,036.5,029.2,19.5,0000.0,0004.55,0001.61,0001.03
2023-09-20 01:57:00,SystemResetWarning,0829.7,5.01,000.00,028.0,024.2,000.0,036.4,029.2,19.5,0000.0,0004.10,0001.53,0001.01
2023-09-20 01:58:00,SystemResetWarning,0829.7,5.01,000.00,027.9,024.5,000.0,036.4,029.2,19.6,0000.0,0004.60,0001.47,0000.97
2023-09-20 01:59:00,SystemResetWarning,0829.7,5.00,000.00,027.8,024.8,000.0,036.4,029.2,19.6,0000.0,0004.57,0001.42,0000.95
